Flag for Canada Weather past 2 weeks in Barrie, Ontario, Canada

Now
28 °F

Light snow. Overcast.


Feels Like: 18 °F
Forecast: -1 / 20 °F
Wind: 12 mph from Northwest

Location: Borden

Current Time: Jan 24, 2015 at 11:23:00 PM

Latest Report: Jan 24, 2015 at 10:01 PM


Visibility: 3 mi

Pressure: 29.50 "Hg

Humidity: 93%

Dew point: 27 °F

Location of BarrieLocation

Historic Weather in Barrie — Graph

°F

Barrie temperature yesterday

Maximum temperature yesterday: 34 °F (at 3:00 PM)
Minimum temperature yesterday: 18 °F (at 3:00 AM)
Average temperature yesterday: 26 °F

Past Weeks' High & Low Weather Summary

 TemperatureHumidityPressure
High43 °F (Jan 18, 1:00 AM)100% (Jan 14, 7:00 PM)30.87 "Hg (Jan 14, 7:00 PM)
Low-22 °F (Jan 13, 8:00 AM)36% (Jan 13, 3:00 PM)29.42 "Hg (Jan 24, 3:01 PM)
Average14 °F79%30.12 "Hg
* Reported Jan 9 10:00 PM — Jan 24 10:01 PM, Barrie, Weather by CustomWeather, © 2014

Note: Actual official high and low records may vary slightly from our data, if they occured in-between our weather recording intervals... More about our weather records

Advertising

Barrie weather history for previous 24 hours

 ConditionsComfort  
Time TempWeatherWind HumidityBarometerVisibility
10:01 PM
Jan 24
28 °FLight snow. Overcast.12 mph93%29.50 "Hg3 mi
9:02 PM34 °FMostly cloudy.10 mph75%29.47 "Hg9 mi
8:00 PM32 °FPassing clouds.3 mph93%29.49 "Hg9 mi
7:53 PM32 °FMostly cloudy.3 mph100%29.46 "Hg9 mi
7:00 PM32 °FLight snow. Overcast.9 mph93%29.48 "Hg5 mi
6:00 PM32 °FOvercast.8 mph87%29.46 "Hg9 mi
5:01 PM32 °FOvercast.7 mph93%29.43 "Hg9 mi
4:00 PM32 °FOvercast.3 mph93%29.45 "Hg7 mi
3:01 PM30 °FOvercast.6 mph100%29.42 "Hg5 mi
2:00 PM28 °FLow clouds.7 mph100%29.46 "Hg2 mi
1:54 PM28 °FLow clouds.7 mph100%29.43 "Hg2 mi
1:00 PM28 °FLow clouds.6 mph93%29.51 "Hg2 mi
12:48 PM28 °FPartly sunny.7 mph93%29.48 "Hg2 mi
12:00 PM28 °FLight snow. Low clouds.8 mph93%29.54 "Hg2 mi
11:56 AM28 °FLight snow. Low clouds.8 mph93%29.51 "Hg2 mi
11:03 AM28 °FLow clouds.8 mph93%N/A4 mi
10:57 AM28 °FLight snow. Low clouds.8 mph93%29.54 "Hg4 mi
10:00 AM27 °FLow clouds.7 mph93%29.58 "Hg4 mi
9:00 AM27 °FLow clouds.7 mph93%29.59 "Hg4 mi
8:00 AM27 °FLow clouds.7 mph93%29.61 "Hg5 mi
7:00 AM27 °FMostly cloudy.7 mph93%29.62 "Hg5 mi
6:58 AM27 °FMostly cloudy.7 mph93%29.59 "Hg5 mi
6:00 AM27 °FMostly cloudy.6 mph93%29.63 "Hg3 mi
5:00 AM27 °FLight snow. Overcast.5 mph93%29.65 "Hg1 mi
4:59 AM27 °FLight snow. Overcast.6 mph93%29.62 "Hg1 mi
4:00 AM27 °FOvercast.3 mph86%29.67 "Hg7 mi
3:00 AM25 °FPassing clouds.9 mph93%29.67 "Hg7 mi
2:00 AM25 °FPassing clouds.13 mph86%29.70 "Hg7 mi
1:00 AM25 °FPassing clouds.13 mph86%29.73 "Hg7 mi
12:00 AM27 °FOvercast.8 mph80%29.78 "Hg7 mi
11:00 PM
Jan 23
25 °FClear.6 mph86%29.80 "Hg8 mi
Weather by CustomWeather, © 2014

See weather overviewHow to use our weather pages